Regional Weather Roundup
Issued by NWS

Home | Current Version | Previous Version | Text Only | Print | Product List | Glossary On
Versions: 1 2 3 4 5 6 7 8 9 10 11 12 13 14 15 16 17 18 19 20 21 22 23 24 25 26 27 28 29 30 31 32 33 34 35 36 37 38 39 40 41 42 43 44 45 46 47 48 49 50
000
ASUS44 KLIX 100411
RWRLA
LOUISIANA WEATHER ROUNDUP
NATIONAL WEATHER SERVICE NEW ORLEANS LA
1000 PM CST TUE FEB 09 2016

NOTE: "FAIR" INDICATES FEW OR NO CLOUDS BELOW 12,000 FEET WITH NO
      SIGNIFICANT WEATHER AND/OR OBSTRUCTIONS TO VISIBILITY.
      SKY/WX - SKY CONDITION AND SIGNIFICANT WEATHER.
      TMP - AIR TEMPERATURE.    DP   - DEWPOINT TEMPERATURE.
      RH  - RELATIVE HUMIDITY.  PRES - PRESSURE.
      HX  - HEAT INDEX.         WCI  - WIND CHILL INDEX.

*  THESE STATIONS ARE NOT NWS OR FAA STATIONS AND ARE NOT UNDER
   NWS QUALITY CONTROL.

LAZ040-048-061>063-065-066-069-100500-
SOUTHEAST LOUISIANA

CITY           SKY/WX    TMP DP  RH WIND       PRES   REMARKS
N.O. AUDUBON   NOT AVBL
N.O. INTL ARPT PTCLDY    46  22  38 W7        30.21R
N.O. LAKEFRONT CLEAR     50  38  63 W9        30.21R
N.O. DOWNTOWN* FAIR      50  21  32 MISG      30.22R
RESERVE*       FAIR      43  33  65 W3        30.22R
SLIDELL        PTCLDY    38  28  67 CALM      30.19R
BATON ROUGE    PTCLDY    44  25  47 MISG      30.22R
BOOTHVILLE     CLEAR     45  37  73 W7        30.22R
BELLE CHASSE   PTCLDY    36  28  73 CALM      30.21R
BOGALUSA*        N/A     35  29  77 CALM      30.20R
GALLIANO*      CLEAR    N/A N/A N/A CALM      30.22R
NEW ROADS*     FAIR      45  28  51 W6        30.23R
GONZALES*      FAIR      51  23  34 NW6       30.21R
HAMMOND*       CLEAR     37  28  70 CALM      30.20R
HOUMA*         CLEAR     42  34  72 W5        30.22R
PORT FOURCHON* CLEAR     52  41  66 W9        30.23R

$$

LAZ041-044-053-054-100500-
SOUTHWEST LOUISIANA

CITY           SKY/WX    TMP DP  RH WIND       PRES   REMARKS
LAKE CHARLES   CLEAR     52  30  43 NW5       30.25R
LAFAYETTE      CLEAR     50  28  42 NW7       30.23R
PATTERSON      CLEAR     46  27  46 NW3       30.24R
SALT POINT       N/A     52  38  58 NW6       30.23R
NEW IBERIA     CLEAR     43  32  65 N5        30.24R
CHENAULT AIRPK CLEAR     48  30  49 NW5       30.25R

$$

LAZ027-028-100500-
CENTRAL LOUISIANA

CITY           SKY/WX    TMP DP  RH WIND       PRES   REMARKS
FORT POLK      PTCLDY    47  27  44 NW6         N/A
ALEXANDRIA INT PTCLDY    43  26  51 NW9       30.22R
ALEXANDRIA     PTCLDY    45  23  42 NW3       30.23R

$$

LAZ001-002-100500-
NORTHWEST LOUISIANA

CITY           SKY/WX    TMP DP  RH WIND       PRES   REMARKS
SHREVEPORT     PTCLDY    47  22  37 NW10      30.25R
BARKSDALE AFB  PTCLDY    40  21  46 N9        30.25R WCI  35
DTN SHREVEPORT PTCLDY    45  20  36 NW6       30.25S

$$

LAZ014-016-100500-
NORTHEAST LOUISIANA

CITY           SKY/WX    TMP DP  RH WIND       PRES   REMARKS
MONROE         PTCLDY    45  19  35 NW9       30.23R
TALLULAH       CLEAR     44  19  36 NW8       30.20R

$$




USA.gov is the U.S. government's official web portal to all federal, state and local government web resources and services.